• In Deutschland
  • Länderverzeichnis
  • Für 7 Tage
  • Wassertemperatur
  • Satellitenkarten
  • Wetterkarte
  • Widgets
  • user-avatar
    Anmelden

    Stündliche Wetter Francistown

    Heute, 16 November, Freitag

    Zeit Temperatur Niederschläge Wind Luftdruck Luftfeuchtigkeit
    00:00 +25°C° 0 mm 4 m/S 677 mmHg 34%
    01:00 +23°C° 0 mm 4 m/S 677 mmHg 37%
    02:00 +22°C° 0 mm 3 m/S 677 mmHg 39%
    03:00 +22°C° 0 mm 3 m/S 677 mmHg 41%
    04:00 +21°C° 0 mm 3 m/S 677 mmHg 44%
    05:00 +20°C° 0 mm 3 m/S 677 mmHg 46%
    06:00 +23°C° 0 mm 4 m/S 678 mmHg 41%
    07:00 +26°C° 0 mm 5 m/S 679 mmHg 36%
    08:00 +28°C° 0 mm 6 m/S 679 mmHg 31%
    09:00 +30°C° 0 mm 5 m/S 679 mmHg 26%
    10:00 +33°C° 0 mm 5 m/S 680 mmHg 22%
    11:00 +35°C° 0 mm 5 m/S 680 mmHg 17%
    12:00 +36°C° 0 mm 5 m/S 679 mmHg 15%
    13:00 +37°C° 0 mm 5 m/S 679 mmHg 13%
    14:00 +39°C° 0 mm 5 m/S 679 mmHg 11%
    15:00 +39°C° 0 mm 5 m/S 678 mmHg 12%
    16:00 +38°C° 0 mm 6 m/S 678 mmHg 13%
    17:00 +38°C° 0 mm 6 m/S 677 mmHg 13%
    18:00 +35°C° 0 mm 6 m/S 677 mmHg 16%
    19:00 +33°C° 0 mm 5 m/S 677 mmHg 19%
    20:00 +30°C° 0 mm 5 m/S 678 mmHg 21%
    21:00 +29°C° 0 mm 5 m/S 678 mmHg 23%
    22:00 +28°C° 0 mm 5 m/S 678 mmHg 24%
    23:00 +28°C° 0 mm 5 m/S 679 mmHg 25%

    Morgen, 17 November, Samstag

    Zeit Temperatur Niederschläge Wind Luftdruck Luftfeuchtigkeit
    00:00 +27°C° 0 mm 4 m/S 678 mmHg 26%
    01:00 +26°C° 0 mm 4 m/S 678 mmHg 28%
    02:00 +25°C° 0 mm 4 m/S 677 mmHg 29%
    03:00 +24°C° 0 mm 3 m/S 677 mmHg 30%
    04:00 +24°C° 0 mm 3 m/S 677 mmHg 32%
    05:00 +22°C° 0 mm 3 m/S 677 mmHg 34%
    06:00 +25°C° 0 mm 3 m/S 678 mmHg 30%
    07:00 +28°C° 0 mm 4 m/S 678 mmHg 27%
    08:00 +30°C° 0 mm 4 m/S 679 mmHg 24%
    09:00 +33°C° 0 mm 4 m/S 679 mmHg 21%
    10:00 +35°C° 0 mm 3 m/S 679 mmHg 18%
    11:00 +37°C° 0 mm 2 m/S 679 mmHg 16%
    12:00 +38°C° 0 mm 3 m/S 678 mmHg 14%
    13:00 +39°C° 0 mm 3 m/S 678 mmHg 12%
    14:00 +39°C° 0 mm 3 m/S 677 mmHg 10%
    15:00 +40°C° 0 mm 4 m/S 677 mmHg 10%
    16:00 +40°C° 0 mm 4 m/S 676 mmHg 10%
    17:00 +40°C° 0 mm 5 m/S 676 mmHg 10%
    18:00 +37°C° 0 mm 5 m/S 676 mmHg 12%
    19:00 +35°C° 0 mm 4 m/S 676 mmHg 14%
    20:00 +32°C° 0 mm 4 m/S 676 mmHg 16%
    21:00 +32°C° 0 mm 4 m/S 676 mmHg 18%
    22:00 +30°C° 0 mm 4 m/S 677 mmHg 20%
    23:00 +29°C° 0 mm 3 m/S 677 mmHg 21%

    übermorgen, 18 November, Sonntag

    Zeit Temperatur Niederschläge Wind Luftdruck Luftfeuchtigkeit
    00:00 +28°C° 0 mm 3 m/S 677 mmHg 23%
    01:00 +27°C° 0 mm 3 m/S 676 mmHg 25%
    02:00 +27°C° 0 mm 3 m/S 676 mmHg 27%
    03:00 +26°C° 0 mm 3 m/S 676 mmHg 28%
    04:00 +26°C° 0 mm 3 m/S 676 mmHg 30%
    05:00 +25°C° 0 mm 3 m/S 676 mmHg 32%
    06:00 +27°C° 0 mm 4 m/S 677 mmHg 30%
    07:00 +29°C° 0 mm 5 m/S 678 mmHg 28%
    08:00 +32°C° 0 mm 6 m/S 678 mmHg 26%
    09:00 +34°C° 0 mm 5 m/S 678 mmHg 22%
    10:00 +37°C° 0 mm 5 m/S 678 mmHg 19%
    11:00 +40°C° 0 mm 4 m/S 678 mmHg 16%
    12:00 +40°C° 0 mm 4 m/S 678 mmHg 14%
    13:00 +41°C° 0 mm 4 m/S 677 mmHg 12%
    14:00 +42°C° 0 mm 4 m/S 676 mmHg 10%
    15:00 +41°C° 0 mm 5 m/S 676 mmHg 11%
    16:00 +41°C° 0 mm 6 m/S 675 mmHg 11%
    17:00 +40°C° 0 mm 6 m/S 675 mmHg 12%
    18:00 +38°C° 0 mm 6 m/S 675 mmHg 15%
    19:00 +36°C° 0 mm 6 m/S 675 mmHg 19%
    20:00 +34°C° 0 mm 5 m/S 676 mmHg 22%
    21:00 +33°C° 0 mm 5 m/S 676 mmHg 24%
    22:00 +32°C° 0 mm 5 m/S 676 mmHg 26%
    23:00 +30°C° 0 mm 6 m/S 677 mmHg 28%

    19 November, Montag

    Zeit Temperatur Niederschläge Wind Luftdruck Luftfeuchtigkeit
    00:00 +29°C° 0 mm 6 m/S 677 mmHg 33%
    01:00 +28°C° 0 mm 7 m/S 677 mmHg 37%
    02:00 +27°C° 0 mm 8 m/S 676 mmHg 41%
    03:00 +26°C° 0 mm 8 m/S 677 mmHg 50%
    04:00 +24°C° 0 mm 8 m/S 677 mmHg 58%
    05:00 +23°C° 0 mm 8 m/S 677 mmHg 66%
    06:00 +23°C° 0 mm 8 m/S 677 mmHg 64%
    07:00 +24°C° 0 mm 8 m/S 678 mmHg 62%
    08:00 +26°C° 0 mm 8 m/S 679 mmHg 60%
    09:00 +28°C° 0 mm 8 m/S 679 mmHg 52%
    10:00 +30°C° 0 mm 7 m/S 679 mmHg 44%
    11:00 +34°C° 0 mm 7 m/S 679 mmHg 37%
    12:00 +35°C° 0 mm 6 m/S 678 mmHg 32%
    13:00 +38°C° 0 mm 6 m/S 677 mmHg 28%
    14:00 +39°C° 0 mm 6 m/S 677 mmHg 23%
    15:00 +39°C° 0 mm 6 m/S 676 mmHg 23%
    16:00 +38°C° 0 mm 6 m/S 676 mmHg 23%
    17:00 +36°C° 0 mm 6 m/S 676 mmHg 23%
    18:00 +35°C° 0 mm 6 m/S 676 mmHg 25%
    19:00 +33°C° 0 mm 5 m/S 676 mmHg 28%
    20:00 +32°C° 0 mm 5 m/S 676 mmHg 30%
    21:00 +30°C° 0 mm 5 m/S 677 mmHg 31%
    22:00 +29°C° 0 mm 5 m/S 677 mmHg 32%
    23:00 +28°C° 0 mm 5 m/S 677 mmHg 33%

    20 November, Dienstag

    Zeit Temperatur Niederschläge Wind Luftdruck Luftfeuchtigkeit
    00:00 +27°C° 0 mm 5 m/S 676 mmHg 38%
    01:00 +26°C° 0 mm 5 m/S 676 mmHg 42%
    02:00 +26°C° 0 mm 6 m/S 675 mmHg 47%
    03:00 +25°C° 0 mm 5 m/S 675 mmHg 50%
    04:00 +25°C° 0 mm 5 m/S 675 mmHg 54%
    05:00 +23°C° 0 mm 5 m/S 675 mmHg 57%
    06:00 +26°C° 0 mm 5 m/S 676 mmHg 51%
    07:00 +28°C° 0 mm 6 m/S 677 mmHg 44%
    08:00 +30°C° 0 mm 6 m/S 677 mmHg 37%
    09:00 +33°C° 0 mm 5 m/S 677 mmHg 32%
    10:00 +36°C° 0 mm 4 m/S 678 mmHg 27%
    11:00 +38°C° 0 mm 3 m/S 678 mmHg 21%
    12:00 +39°C° 0 mm 2 m/S 677 mmHg 20%
    13:00 +39°C° 0 mm 2 m/S 676 mmHg 18%
    14:00 +40°C° 0 mm 1 m/S 675 mmHg 17%
    15:00 +39°C° 0 mm 1 m/S 675 mmHg 18%
    16:00 +39°C° 0 mm 2 m/S 675 mmHg 19%
    17:00 +38°C° 0 mm 2 m/S 675 mmHg 19%
    18:00 +35°C° 0.3 mm 5 m/S 675 mmHg 29%
    19:00 +33°C° 0.3 mm 7 m/S 675 mmHg 39%
    20:00 +29°C° 0.3 mm 9 m/S 675 mmHg 49%
    21:00 +29°C° 0.1 mm 8 m/S 675 mmHg 48%
    22:00 +28°C° 0.1 mm 7 m/S 675 mmHg 48%
    23:00 +28°C° 0.1 mm 6 m/S 676 mmHg 47%

    21 November, Mittwoch

    Zeit Temperatur Niederschläge Wind Luftdruck Luftfeuchtigkeit
    00:00 +27°C° 0 mm 6 m/S 675 mmHg 48%
    01:00 +27°C° 0 mm 5 m/S 674 mmHg 49%
    02:00 +27°C° 0 mm 5 m/S 673 mmHg 50%
    03:00 +27°C° 0.1 mm 4 m/S 674 mmHg 49%
    04:00 +26°C° 0.1 mm 3 m/S 674 mmHg 49%
    05:00 +26°C° 0.1 mm 2 m/S 674 mmHg 48%
    06:00 +27°C° 0 mm 2 m/S 674 mmHg 44%
    07:00 +29°C° 0 mm 2 m/S 675 mmHg 41%
    08:00 +30°C° 0 mm 2 m/S 676 mmHg 37%
    09:00 +33°C° 0 mm 3 m/S 676 mmHg 33%
    10:00 +35°C° 0 mm 3 m/S 676 mmHg 29%
    11:00 +37°C° 0 mm 3 m/S 676 mmHg 25%
    12:00 +37°C° 0 mm 4 m/S 676 mmHg 24%
    13:00 +38°C° 0 mm 4 m/S 675 mmHg 23%
    14:00 +39°C° 0 mm 5 m/S 675 mmHg 23%
    15:00 +38°C° 0 mm 4 m/S 674 mmHg 22%
    16:00 +38°C° 0 mm 4 m/S 674 mmHg 22%
    17:00 +38°C° 0 mm 4 m/S 673 mmHg 21%
    18:00 +36°C° 0.2 mm 3 m/S 674 mmHg 25%
    19:00 +35°C° 0.2 mm 3 m/S 674 mmHg 28%
    20:00 +33°C° 0.2 mm 3 m/S 674 mmHg 31%
    21:00 +32°C° 0.3 mm 4 m/S 675 mmHg 33%
    22:00 +32°C° 0.3 mm 5 m/S 675 mmHg 35%
    23:00 +30°C° 0.3 mm 6 m/S 676 mmHg 37%
    Mehr zeigen